Flag for U.S.A. Weather past 2 weeks in Greensboro, North Carolina, U.S.A.

Now
85 °F

Broken clouds.


Feels Like: 90 °F
Forecast: 72 / 87 °F
Wind: 10 mph from South

Location: Piedmont Triad International Airport

Current Time: Jul 28, 2015 at 4:32:24 PM

Latest Report: Jul 28, 2015 at 3:54 PM


Visibility: 10 mi

Pressure: 29.93 "Hg

Humidity: 63%

Dew point: 71 °F

Location of GreensboroLocation

Historic Weather in Greensboro — Graph

°F

Greensboro temperature yesterday

Maximum temperature yesterday: 89 °F (at 2:54 PM)
Minimum temperature yesterday: 72 °F (at 5:54 AM)
Average temperature yesterday: 78 °F

Past Weeks' High & Low Weather Summary

 TemperatureHumidityPressure
High94 °F (Jul 18, 3:54 PM)100% (Jul 13, 9:54 PM)30.09 "Hg (Jul 13, 9:54 PM)
Low68 °F (Jul 25, 6:54 AM)40% (Jul 18, 2:54 PM)29.62 "Hg (Jul 14, 5:54 PM)
Average79 °F70%29.90 "Hg
* Reported Jul 13 2:54 PM — Jul 28 2:54 PM, Greensboro, Weather by CustomWeather, © 2015

Note: Actual official high and low records may vary slightly from our data, if they occured in-between our weather recording intervals... More about our weather records

Advertising

Greensboro weather history for previous 24 hours

 ConditionsComfort  
Time TempWeatherWind HumidityBarometerVisibility
2:54 PM
Tue, Jul 28
85 °FLight rain. Broken clouds.10 mph63%29.95 "Hg10 mi
1:54 PM87 °FBroken clouds.8 mph59%29.96 "Hg10 mi
12:54 PM85 °FPartly sunny.8 mph63%29.99 "Hg10 mi
11:54 AM85 °FPartly sunny.6 mph63%30.00 "Hg10 mi
10:54 AM83 °FScattered clouds.6 mph68%30.00 "Hg10 mi
9:54 AM79 °FBroken clouds.No wind77%30.00 "Hg10 mi
8:54 AM78 °FScattered clouds.5 mph82%30.00 "Hg10 mi
7:54 AM74 °FPartly sunny.5 mph94%29.99 "Hg10 mi
6:54 AM71 °FPassing clouds.No wind100%29.99 "Hg7 mi
5:54 AM71 °FPassing clouds.No wind100%29.97 "Hg9 mi
4:54 AM71 °FPassing clouds.3 mph96%29.98 "Hg9 mi
3:54 AM72 °FPartly cloudy.No wind93%29.97 "Hg10 mi
2:54 AM73 °FPassing clouds.No wind94%29.98 "Hg10 mi
1:54 AM73 °FPassing clouds.No wind90%30.00 "Hg10 mi
12:54 AM72 °FPassing clouds.3 mph93%30.00 "Hg10 mi
11:54 PM
Mon, Jul 27
73 °FPassing clouds.5 mph90%29.98 "Hg10 mi
10:54 PM74 °FPassing clouds.5 mph88%29.98 "Hg10 mi
9:54 PM74 °FPartly cloudy.8 mph94%29.98 "Hg10 mi
8:54 PM75 °FScattered clouds.7 mph90%29.96 "Hg10 mi
7:54 PM77 °FBroken clouds.9 mph82%29.96 "Hg10 mi
6:54 PM80 °FLight rain. Partly sunny.7 mph81%29.94 "Hg9 mi
5:54 PM84 °FPartly sunny.5 mph63%29.93 "Hg10 mi
4:54 PM80 °FBroken clouds.9 mph64%29.94 "Hg10 mi
Weather by CustomWeather, © 2015

See weather overviewHow to use our weather pages